TimeEDT,TemperatureF,Dew PointF,Humidity,Sea Level PressureIn,VisibilityMPH,Wind Direction,Wind SpeedMPH,Gust SpeedMPH,PrecipitationIn,Events,Conditions,WindDirDegrees,DateUTC
12:53 AM,46.9,41.0,80,29.93,10.0,Calm,Calm,-,N/A,,Scattered Clouds,0,2012-10-16 04:53:00
1:53 AM,45.0,41.0,86,29.93,10.0,Calm,Calm,-,N/A,,Scattered Clouds,0,2012-10-16 05:53:00
2:53 AM,43.0,39.9,89,29.95,10.0,Calm,Calm,-,N/A,,Scattered Clouds,0,2012-10-16 06:53:00
3:53 AM,42.1,39.9,92,29.96,7.0,Calm,Calm,-,N/A,,Scattered Clouds,0,2012-10-16 07:53:00
4:53 AM,41.0,39.9,96,29.97,5.0,Calm,Calm,-,N/A,,Scattered Clouds,0,2012-10-16 08:53:00
5:47 AM,39.2,39.2,100,30.01,2.5,Calm,Calm,-,N/A,,Partly Cloudy,0,2012-10-16 09:47:00
5:53 AM,39.0,39.0,100,29.98,3.0,Calm,Calm,-,N/A,,Partly Cloudy,0,2012-10-16 09:53:00
6:48 AM,39.2,37.4,93,30.03,2.0,Calm,Calm,-,N/A,,Mostly Cloudy,0,2012-10-16 10:48:00
6:53 AM,39.0,37.9,96,30.00,3.0,Calm,Calm,-,N/A,,Mostly Cloudy,0,2012-10-16 10:53:00
7:53 AM,39.0,37.9,96,30.00,6.0,Calm,Calm,-,N/A,,Partly Cloudy,0,2012-10-16 11:53:00
8:38 AM,42.8,41.0,93,30.04,6.0,Calm,Calm,-,N/A,,Partly Cloudy,0,2012-10-16 12:38:00
8:53 AM,45.0,43.0,93,30.01,6.0,Calm,Calm,-,N/A,,Clear,0,2012-10-16 12:53:00
9:53 AM,48.9,46.0,90,30.01,10.0,SE,4.6,-,N/A,,Partly Cloudy,130,2012-10-16 13:53:00
10:53 AM,54.0,46.0,75,29.99,10.0,Calm,Calm,-,N/A,,Clear,0,2012-10-16 14:53:00
11:53 AM,57.9,44.1,60,29.99,10.0,Variable,3.5,-,N/A,,Partly Cloudy,0,2012-10-16 15:53:00
12:53 PM,61.0,41.0,48,29.98,10.0,WSW,5.8,-,N/A,,Partly Cloudy,240,2012-10-16 16:53:00
1:53 PM,63.0,39.9,43,29.94,10.0,NW,8.1,-,N/A,,Scattered Clouds,320,2012-10-16 17:53:00
2:53 PM,64.0,37.9,38,29.91,10.0,WNW,5.8,-,N/A,,Partly Cloudy,300,2012-10-16 18:53:00
3:53 PM,66.0,36.0,33,29.89,10.0,Calm,Calm,-,N/A,,Partly Cloudy,0,2012-10-16 19:53:00
4:53 PM,64.9,36.0,34,29.88,10.0,Calm,Calm,-,N/A,,Scattered Clouds,0,2012-10-16 20:53:00
5:53 PM,62.1,39.0,43,29.89,10.0,WSW,6.9,-,N/A,,Scattered Clouds,250,2012-10-16 21:53:00
6:53 PM,59.0,41.0,51,29.88,10.0,Calm,Calm,-,N/A,,Mostly Cloudy,0,2012-10-16 22:53:00
7:53 PM,51.1,42.1,71,29.89,10.0,Calm,Calm,-,N/A,,Mostly Cloudy,0,2012-10-16 23:53:00
8:53 PM,48.9,43.0,80,29.88,10.0,Calm,Calm,-,N/A,,Mostly Cloudy,0,2012-10-17 00:53:00
9:53 PM,48.0,42.1,80,29.90,10.0,Calm,Calm,-,N/A,,Mostly Cloudy,0,2012-10-17 01:53:00
10:53 PM,46.0,42.1,86,29.90,10.0,Calm,Calm,-,N/A,,Scattered Clouds,0,2012-10-17 02:53:00
11:53 PM,45.0,42.1,90,29.90,10.0,Calm,Calm,-,N/A,,Scattered Clouds,0,2012-10-17 03:53:00